This demonstration page uses our WeatherBlox Daily Observations layout. Learn more.

Left ArrowRight Arrow

Hourly Observations for April 23, 2018

Temp ( °F °C ) Dew Point ( °F °C ) Humidity (%) Winds ( mph kmh ) Pressure ( in mb ) Visibility ( mi km ) Precip ( " mm )
12:51 am 00:51 Clear 63 17.2 22 -5.6 21 21 ESE 10 17 29.84 1010 10 16 0.00 0.00
1:51 am 01:51 Clear 57 13.9 20 -6.7 24 24 VRB 3 6 29.85 1011 10 16 0.00 0.00
2:51 am 02:51 Clear 56 13.3 19 -7.2 24 24 W 3 6 29.86 1011 10 16 0.00 0.00
3:51 am 03:51 Clear 56 13.3 20 -6.7 24 24 N 5 7 29.88 1012 10 16 0.00 0.00
4:51 am 04:51 Clear 56 13.3 21 -6.1 26 26 S 5 7 29.90 1012 10 16 0.00 0.00
5:51 am 05:51 Sunny 52 11.1 22 -5.6 31 31 Calm 29.92 1013 10 16 0.00 0.00
6:51 am 06:51 Sunny 58 14.4 23 -5 26 26 Calm 29.93 1014 10 16 0.00 0.00
7:51 am 07:51 Sunny 67 19.4 21 -6.1 17 17 VRB 3 6 29.94 1014 10 16 0.00 0.00
8:51 am 08:51 Sunny 75 23.9 22 -5.6 14 14 SE 9 15 29.93 1014 10 16 0.00 0.00
9:51 am 09:51 Sunny 77 25 27 -2.8 16 16 S 6 9 29.94 1014 10 16 0.00 0.00
10:51 am 10:51 Sunny 81 27.2 28 -2.2 14 14 Calm 29.93 1014 10 16 0.00 0.00
11:51 am 11:51 Sunny 85 29.4 25 -3.9 11 11 VRB 3 6 29.89 1012 10 16 0.00 0.00
12:51 pm 12:51 Sunny 86 30 22 -5.6 9 9 VRB 5 7 29.86 1011 10 16 0.00 0.00
1:51 pm 13:51 Sunny 89 31.7 20 -6.7 8 8 N 6 9 29.84 1011 10 16 0.00 0.00
2:51 pm 14:51 Sunny 90 32.2 19 -7.2 7 7 VRB 6 9 29.81 1010 10 16 0.00 0.00
3:51 pm 15:51 Sunny 90 32.2 20 -6.7 8 8 WSW 9 15 29.79 1009 10 16 0.00 0.00
4:51 pm 16:51 Sunny 90 32.2 20 -6.7 8 8 NW 8 13 29.78 1008 10 16 0.00 0.00
5:51 pm 17:51 Sunny 88 31.1 19 -7.2 8 8 NW 6 9 29.78 1009 10 16 0.00 0.00
6:51 pm 18:51 Sunny 84 28.9 19 -7.2 9 9 WNW 6 9 29.79 1009 10 16 0.00 0.00
7:51 pm 19:51 Clear 80 26.7 17 -8.3 9 9 NW 10 17 29.79 1009 10 16 0.00 0.00
8:51 pm 20:51 Clear 76 24.4 17 -8.3 11 11 WNW 10 17 29.81 1010 10 16 0.00 0.00
9:51 pm 21:51 Clear 75 23.9 18 -7.8 11 11 WNW 12 19 29.83 1010 10 16 0.00 0.00
10:51 pm 22:51 Clear 73 22.8 18 -7.8 12 12 NW 12 19 29.83 1010 10 16 0.00 0.00
11:51 pm 23:51 Clear 69 20.6 17 -8.3 14 14 NW 10 17 29.84 1011 10 16 0.00 0.00

Powered by AerisWeather